CW2927 Weather Reports


Display with metric or nautical units.
time (UTC)temp
F
wind
direction
speed
MPH
gust
MPH
rain 1hr
in
rain 24hr
in
rain mn
in
humidity
%
barometer
mb
20181115002706 15 295 4.0 6.0 0.00 0.00 0.00 72 1034.1
20181115002206 15 268 4.0 8.0 0.00 0.00 0.00 72 1034.3
20181115000707 16 298 2.0 5.0 0.00 0.00 0.00 71 1034.2
20181115000207 16 295 2.0 12.0 0.00 0.00 0.00 71 1033.9
20181114234706 16 308 6.0 12.0 0.00 0.00 0.00 70 1034.0
20181114234206 16 295 4.0 13.0 0.00 0.00 0.00 69 1033.8
20181114232706 17 306 7.0 15.0 0.00 0.00 0.00 69 1034.0
20181114232207 17 308 7.0 14.0 0.00 0.00 0.00 69 1034.0
20181114230706 17 288 5.0 12.0 0.00 0.00 0.00 70 1033.6
20181114230206 17 303 7.0 12.0 0.00 0.00 0.00 69 1033.6
20181114224706 17 298 7.0 10.0 0.00 0.00 0.00 70 1033.2
20181114224207 17 298 6.0 12.0 0.00 0.00 0.00 70 1033.3
20181114222706 17 296 6.0 9.0 0.00 0.00 0.00 69 1032.7
20181114222206 17 296 5.0 9.0 0.00 0.00 0.00 69 1032.6
20181114220706 17 284 5.0 7.0 0.00 0.00 0.00 68 1032.3
20181114220206 17 285 5.0 10.0 0.00 0.00 0.00 67 1032.1
20181114214706 18 310 6.0 12.0 0.00 0.00 0.00 65 1032.0
20181114214206 18 300 6.0 13.0 0.00 0.00 0.00 65 1031.9
20181114212707 18 294 6.0 12.0 0.00 0.00 0.00 65 1031.5
20181114212206 18 292 7.0 17.0 0.00 0.00 0.00 64 1031.4
20181114210706 19 293 7.0 12.0 0.00 0.00 0.00 64 1031.0
20181114210207 19 295 7.0 20.0 0.00 0.00 0.00 63 1030.8
20181114204706 19 291 13.0 20.0 0.00 0.00 0.00 62 1030.6
20181114204206 19 298 10.0 20.0 0.00 0.00 0.00 62 1030.5
20181114202707 19 298 10.0 14.0 0.00 0.01 0.00 62 1030.3
20181114202206 20 302 12.0 21.0 0.00 0.01 0.00 60 1030.1
20181114200706 20 318 10.0 17.0 0.00 0.01 0.00 60 1029.9
20181114200206 20 300 10.0 21.0 0.00 0.01 0.00 60 1029.7
20181114194706 20 302 8.0 17.0 0.00 0.02 0.00 60 1029.4
20181114194206 20 308 12.0 22.0 0.00 0.02 0.00 59 1029.3
20181114192706 20 296 10.0 17.0 0.00 0.02 0.00 60 1028.8
20181114192206 20 308 12.0 21.0 0.00 0.02 0.00 59 1028.8
20181114190706 20 317 12.0 23.0 0.00 0.03 0.00 61 1028.5
20181114190206 20 305 7.0 18.0 0.00 0.04 0.00 62 1028.4
20181114184706 20 286 11.0 20.0 0.00 0.05 0.00 61 1028.3
20181114184206 20 298 12.0 23.0 0.00 0.05 0.00 60 1028.3
20181114182706 20 289 10.0 20.0 0.00 0.06 0.00 62 1028.2
20181114182206 20 308 7.0 20.0 0.00 0.06 0.00 61 1028.2
20181114180707 19 297 11.0 20.0 0.00 0.07 0.00 62 1028.1
20181114180206 18 301 13.0 20.0 0.00 0.07 0.00 61 1028.0
20181114174706 19 300 9.0 17.0 0.00 0.09 0.00 62 1027.6
20181114174206 18 305 8.0 21.0 0.00 0.09 0.00 62 1027.5
20181114172706 18 300 11.0 20.0 0.00 0.10 0.00 62 1027.5
20181114172206 18 292 10.0 18.0 0.00 0.11 0.00 62 1027.5
20181114170706 18 305 10.0 20.0 0.00 0.12 0.00 61 1027.4
20181114170206 18 316 12.0 20.0 0.00 0.13 0.00 61 1027.4
20181114164706 18 292 12.0 20.0 0.00 0.13 0.00 62 1027.4
20181114164206 17 288 10.0 18.0 0.00 0.13 0.00 62 1027.3
20181114162706 17 313 8.0 20.0 0.00 0.15 0.00 64 1027.3
20181114162206 16 308 9.0 20.0 0.00 0.16 0.00 63 1027.2
20181114160706 16 285 9.0 15.0 0.00 0.17 0.00 65 1027.3
20181114160206 16 299 9.0 21.0 0.00 0.18 0.00 66 1027.2
20181114154707 16 287 9.0 14.0 0.00 0.20 0.00 64 1027.2
20181114154205 16 292 8.0 17.0 0.00 0.20 0.00 65 1027.2
20181114152705 15 299 10.0 21.0 0.00 0.21 0.00 65 1027.2
20181114152206 15 294 10.0 20.0 0.00 0.21 0.00 64 1027.1
20181114150706 15 297 11.0 17.0 0.00 0.21 0.00 65 1026.8
20181114150206 15 303 9.0 23.0 0.00 0.21 0.00 64 1026.7
20181114144706 14 301 11.0 16.0 0.00 0.21 0.00 65 1026.5
20181114144206 14 305 8.0 20.0 0.00 0.21 0.00 65 1026.5
20181114142706 14 315 9.0 16.0 0.00 0.21 0.00 67 1026.2
20181114142206 14 310 11.0 20.0 0.00 0.21 0.00 66 1026.2
20181114140706 13 328 11.0 17.0 0.00 0.21 0.00 67 1025.9
20181114140206 13 297 13.0 21.0 0.00 0.21 0.00 67 1025.9
20181114134706 13 293 6.0 16.0 0.00 0.21 0.00 70 1025.6
20181114134206 13 302 8.0 15.0 0.00 0.21 0.00 69 1025.5
20181114132706 12 322 10.0 18.0 0.00 0.21 0.00 68 1025.2
20181114132206 12 316 11.0 20.0 0.00 0.21 0.00 69 1025.1
20181114130706 12 329 11.0 22.0 0.00 0.21 0.00 69 1024.9
20181114130206 12 312 9.0 16.0 0.00 0.21 0.00 71 1024.8
20181114124706 11 312 9.0 17.0 0.00 0.21 0.00 70 1024.5
20181114124206 11 323 9.0 16.0 0.00 0.21 0.00 71 1024.4
20181114122706 11 309 7.0 16.0 0.00 0.21 0.00 71 1024.1
20181114122206 11 321 10.0 17.0 0.00 0.21 0.00 71 1024.0
20181114120705 10 304 9.0 16.0 0.00 0.21 0.00 73 1023.7
20181114120206 10 298 10.0 18.0 0.00 0.21 0.00 74 1023.6
20181114114706 10 313 8.0 14.0 0.00 0.21 0.00 74 1023.2
20181114114206 11 311 8.0 13.0 0.00 0.21 0.00 73 1023.1
20181114112707 11 313 7.0 12.0 0.00 0.21 0.00 73 1022.7
20181114112206 11 309 7.0 15.0 0.00 0.21 0.00 73 1022.6
20181114110706 11 306 5.0 9.0 0.00 0.21 0.00 72 1022.3
20181114110206 11 299 5.0 13.0 0.00 0.21 0.00 72 1022.4
20181114104705 11 312 5.0 10.0 0.00 0.21 0.00 71 1022.2
20181114104206 11 332 7.0 16.0 0.00 0.21 0.00 71 1022.1
20181114102706 11 315 8.0 13.0 0.00 0.21 0.00 72 1021.7
20181114102205 11 292 9.0 15.0 0.00 0.21 0.00 72 1021.7
20181114100706 12 312 6.0 12.0 0.00 0.21 0.00 73 1021.5
20181114100206 12 328 5.0 12.0 0.00 0.21 0.00 73 1021.3
20181114094705 12 318 3.0 6.0 0.00 0.21 0.00 73 1021.0
20181114094205 12 319 5.0 12.0 0.00 0.21 0.00 72 1020.8
20181114092706 12 333 6.0 10.0 0.00 0.21 0.00 72 1020.7
20181114092206 12 314 6.0 12.0 0.00 0.21 0.00 72 1020.6
20181114090706 13 314 8.0 12.0 0.00 0.22 0.00 71 1020.3
20181114090206 13 306 6.0 14.0 0.00 0.22 0.00 71 1020.3
20181114084706 13 311 8.0 16.0 0.00 0.22 0.00 71 1020.0
20181114084206 13 334 7.0 18.0 0.00 0.22 0.00 71 1020.0
20181114082706 13 327 6.0 12.0 0.00 0.23 0.00 70 1019.9
20181114082205 13 322 9.0 15.0 0.00 0.23 0.00 69 1019.8
20181114080706 14 317 9.0 15.0 0.00 0.23 0.00 70 1019.5
20181114080206 14 301 12.0 18.0 0.00 0.23 0.00 70 1019.4
20181114074706 14 319 6.0 10.0 0.00 0.23 0.00 71 1019.4
20181114074206 14 302 6.0 16.0 0.00 0.23 0.00 70 1019.4
20181114072706 14 313 6.0 13.0 0.00 0.23 0.00 70 1019.3
20181114072205 14 335 9.0 16.0 0.00 0.23 0.00 70 1019.5
20181114070706 14 295 10.0 13.0 0.00 0.24 0.00 69 1019.6
20181114070206 15 310 6.0 18.0 0.00 0.24 0.00 68 1019.4
20181114064706 15 313 9.0 18.0 0.00 0.24 0.00 68 1019.2
20181114064206 15 310 7.0 15.0 0.00 0.24 0.00 69 1019.0
20181114062707 15 339 9.0 16.0 0.00 0.24 0.00 67 1018.9
20181114062205 15 327 10.0 20.0 0.00 0.24 0.00 68 1018.8
20181114060706 15 317 12.0 17.0 0.00 0.24 0.00 72 1018.5
20181114060206 15 325 8.0 16.0 0.00 0.24 0.00 73 1018.3
20181114054706 16 329 9.0 12.0 0.00 0.24 0.00 73 1018.0
20181114054206 16 340 8.0 15.0 0.00 0.24 0.00 73 1018.0
20181114052706 16 332 9.0 14.0 0.00 0.24 0.00 74 1017.9
20181114052205 17 345 9.0 16.0 0.00 0.24 0.00 74 1017.9
20181114050705 17 320 11.0 18.0 0.00 0.24 0.00 72 1017.7
20181114050206 17 335 8.0 18.0 0.00 0.24 0.00 72 1017.6
20181114044705 18 326 9.0 18.0 0.00 0.24 0.24 72 1017.3
20181114044206 18 322 10.0 26.0 0.00 0.24 0.24 71 1017.1
20181114042706 19 316 12.0 22.0 0.00 0.24 0.24 70 1016.9
20181114042206 19 321 14.0 24.0 0.00 0.24 0.24 70 1016.8
20181114040706 20 300 13.0 20.0 0.00 0.24 0.24 71 1016.5
20181114040206 21 324 12.0 26.0 0.00 0.24 0.24 72 1016.3
20181114034706 21 344 9.0 14.0 0.00 0.24 0.24 75 1015.7
20181114034206 21 332 10.0 20.0 0.00 0.24 0.24 74 1015.6
20181114032706 22 315 12.0 20.0 0.00 0.24 0.24 73 1015.6
20181114032206 22 325 12.0 23.0 0.00 0.24 0.24 73 1015.5
20181114030706 23 321 14.0 24.0 0.00 0.24 0.24 74 1015.0
20181114030206 23 316 13.0 28.0 0.00 0.24 0.24 76 1014.9
20181114024705 24 322 16.0 25.0 0.00 0.24 0.24 75 1014.4
20181114024206 24 339 16.0 26.0 0.00 0.24 0.24 76 1014.3
20181114022706 26 307 12.0 21.0 0.00 0.24 0.24 77 1013.8
20181114022206 26 320 13.0 25.0 0.00 0.24 0.24 77 1013.6
20181114020706 27 305 12.0 20.0 0.00 0.24 0.24 78 1013.3
20181114020206 27 312 13.0 28.0 0.00 0.24 0.24 78 1013.1
20181114014706 28 322 12.0 20.0 0.00 0.24 0.24 79 1013.0
20181114014206 28 310 13.0 26.0 0.00 0.24 0.24 77 1012.7
20181114012706 29 319 13.0 22.0 0.00 0.24 0.24 81 1012.5
20181114012206 30 300 12.0 21.0 0.00 0.24 0.24 81 1012.4
20181114010706 30 316 12.0 20.0 0.00 0.24 0.24 84 1012.1
20181114010205 30 320 9.0 17.0 0.00 0.24 0.24 84 1012.1
20181114004705 31 315 9.0 15.0 0.00 0.24 0.24 85 1011.8
20181114004206 31 314 9.0 18.0 0.00 0.24 0.24 85 1011.5